VE2JJ-13 Weather Reports


Display with metric or nautical units.
time (UTC)temp
F
wind
direction
speed
MPH
gust
MPH
rain 1hr
in
rain 24hr
in
rain mn
in
humidity
%
barometer
mb
20260507234443 51 233 8.0 7.0 0.00 0.00 0.00 47 1000.1
20260507233946 52 8 9.0 6.0 0.00 0.00 0.00 46 1000.0
20260507233441 52 307 13.0 14.0 0.00 0.00 0.00 45 1000.0
20260507232942 53 245 12.0 8.0 0.00 0.00 0.00 44 1000.0
20260507232442 53 248 9.0 8.0 0.00 0.00 0.00 43 1000.0
20260507231951 54 242 17.0 13.0 0.00 0.00 0.00 42 1000.0
20260507231413 54 259 15.0 9.0 0.00 0.00 0.00 42 1000.0
20260507230912 54 152 13.0 14.0 0.00 0.00 0.00 42 1000.0
20260507225918 53 253 13.0 10.0 0.00 0.00 0.00 46 1000.0
20260507225413 53 309 9.0 6.0 0.00 0.00 0.00 46 1000.0
20260507224915 52 262 12.0 10.0 0.00 0.00 0.00 47 1000.0
20260507224415 52 263 10.0 13.0 0.00 0.00 0.00 46 1000.0
20260507223913 52 280 10.0 17.0 0.00 0.00 0.00 46 1000.1
20260507223411 53 269 16.0 12.0 0.00 0.00 0.00 45 1000.1
20260507222412 54 248 20.0 23.0 0.00 0.00 0.00 44 1000.0
20260507221913 55 252 15.0 13.0 0.00 0.00 0.00 43 1000.0
20260507221412 55 270 18.0 18.0 0.00 0.00 0.00 42 1000.0
20260507220842 54 272 20.0 16.0 0.00 0.00 0.00 43 1000.0
20260507220342 53 202 18.0 16.0 0.00 0.00 0.00 43 999.9
20260507215845 53 270 18.0 13.0 0.00 0.00 0.00 43 999.9
20260507215311 54 248 17.0 12.0 0.00 0.00 0.00 42 999.9
20260507214814 54 248 17.0 12.0 0.00 0.00 0.00 42 999.8
20260507214241 54 222 15.0 10.0 0.00 0.00 0.00 41 999.8
20260507213741 56 225 17.0 16.0 0.00 0.00 0.00 41 999.6
20260507213241 55 254 22.0 14.0 0.00 0.00 0.00 41 999.6
20260507212742 56 247 25.0 17.0 0.00 0.00 0.00 40 999.6
20260507212241 56 209 25.0 25.0 0.00 0.00 0.00 40 999.6
20260507211743 56 232 22.0 16.0 0.00 0.00 0.00 40 999.6
20260507211241 56 280 31.0 21.0 0.00 0.00 0.00 40 999.6
20260507210741 56 232 30.0 29.0 0.00 0.00 0.00 39 999.6
20260507210241 55 261 16.0 14.0 0.00 0.00 0.00 41 999.4
20260507205741 56 197 23.0 17.0 0.00 0.00 0.00 40 999.4
20260507205243 56 184 20.0 14.0 0.00 0.00 0.00 41 999.4
20260507204712 55 213 26.0 24.0 0.00 0.00 0.00 43 999.4
20260507204211 55 207 18.0 25.0 0.00 0.00 0.00 44 999.4
20260507203711 55 303 21.0 15.0 0.00 0.00 0.00 43 999.6
20260507203211 56 234 22.0 17.0 0.00 0.00 0.00 41 999.6
20260507202858 56 237 23.0 16.0 0.00 0.00 0.00 42 999.4
20260507202711 56 237 23.0 16.0 0.00 0.00 0.00 42 999.4
20260507202217 56 233 26.0 20.0 0.00 0.00 0.00 42 999.4
20260507201715 55 270 31.0 20.0 0.00 0.00 0.00 42 999.4
20260507201211 56 270 28.0 30.0 0.00 0.00 0.00 40 999.4
20260507200641 56 224 25.0 16.0 0.00 0.00 0.00 40 999.4
20260507200110 57 245 37.0 30.0 0.00 0.00 0.00 39 999.5
20260507195611 56 252 25.0 20.0 0.00 0.00 0.00 41 999.5
20260507195114 56 190 20.0 16.0 0.00 0.00 0.00 43 999.4
20260507194610 55 313 24.0 24.0 0.00 0.00 0.00 43 999.4
20260507194110 55 233 14.0 16.0 0.00 0.00 0.00 43 999.4
20260507193540 55 220 26.0 15.0 0.00 0.00 0.00 41 999.4
20260507193043 55 217 18.0 12.0 0.00 0.00 0.00 43 999.4
20260507192541 54 297 17.0 20.0 0.00 0.00 0.00 44 999.4
20260507192041 54 290 20.0 14.0 0.00 0.00 0.00 45 999.4
20260507191541 54 304 25.0 20.0 0.00 0.00 0.00 43 999.6
20260507191040 54 262 23.0 18.0 0.00 0.00 0.00 43 999.6
20260507190541 53 239 39.0 25.0 0.00 0.00 0.00 42 999.6
20260507190041 53 225 23.0 18.0 0.00 0.00 0.00 42 999.5
20260507185540 53 215 22.0 21.0 0.00 0.00 0.00 41 999.5
20260507185042 53 254 26.0 22.0 0.00 0.00 0.00 41 999.6
20260507184542 54 212 22.0 15.0 0.00 0.00 0.00 41 999.6
20260507184044 55 266 25.0 26.0 0.00 0.00 0.00 41 999.5
20260507183540 54 256 18.0 16.0 0.00 0.00 0.00 43 999.5
20260507183010 53 210 20.0 20.0 0.00 0.00 0.00 42 999.5
20260507182511 54 242 16.0 14.0 0.00 0.00 0.00 44 999.6
20260507182011 53 214 17.0 17.0 0.00 0.00 0.00 43 999.6
20260507181512 53 210 24.0 17.0 0.00 0.00 0.00 42 999.6
20260507180940 53 142 30.0 22.0 0.00 0.00 0.00 43 999.6
20260507180411 52 203 24.0 22.0 0.00 0.00 0.00 44 999.4
20260507175910 52 263 21.0 20.0 0.00 0.00 0.00 45 999.3
20260507175410 53 226 21.0 20.0 0.00 0.00 0.00 44 999.3
20260507174914 53 238 30.0 22.0 0.00 0.00 0.00 43 999.4
20260507174410 55 248 24.0 20.0 0.00 0.00 0.00 41 999.4
20260507173912 55 212 31.0 25.0 0.00 0.00 0.00 42 999.3
20260507173410 54 247 20.0 21.0 0.00 0.00 0.00 42 999.3
20260507172412 55 218 18.0 14.0 0.00 0.00 0.00 43 999.5
20260507171910 53 242 22.0 20.0 0.00 0.00 0.00 43 999.5
20260507171339 53 246 18.0 14.0 0.00 0.00 0.00 44 999.5
20260507170810 54 206 29.0 20.0 0.00 0.00 0.00 43 999.5
20260507170348 55 242 21.0 24.0 0.00 0.00 0.00 43 999.4
20260507170310 55 242 21.0 24.0 0.00 0.00 0.00 43 999.4
20260507165810 54 215 26.0 21.0 0.00 0.00 0.00 43 999.4
20260507165342 56 215 29.0 22.0 0.00 0.00 0.00 42 999.4
20260507165309 56 215 29.0 22.0 0.00 0.00 0.00 42 999.4
20260507164811 54 206 22.0 31.0 0.00 0.00 0.00 42 999.6
20260507164311 55 265 36.0 25.0 0.00 0.00 0.00 43 999.6
20260507163811 55 248 37.0 23.0 0.00 0.00 0.00 42 999.7
20260507163310 56 246 23.0 35.0 0.00 0.01 0.00 41 999.7
20260507162812 55 210 23.0 22.0 0.00 0.01 0.00 43 999.7
20260507162240 52 259 39.0 31.0 0.00 0.01 0.00 44 999.7
20260507161742 53 248 26.0 22.0 0.00 0.01 0.00 46 999.7
20260507161241 52 223 30.0 20.0 0.00 0.01 0.00 50 999.7
20260507160740 52 184 28.0 18.0 0.00 0.01 0.00 53 999.7
20260507160240 53 218 17.0 17.0 0.00 0.01 0.00 52 999.7
20260507155740 53 315 20.0 16.0 0.00 0.02 0.00 52 999.7
20260507155240 54 231 29.0 22.0 0.00 0.02 0.00 51 999.8
20260507154741 53 240 22.0 14.0 0.00 0.02 0.00 52 999.8
20260507154239 54 278 24.0 18.0 0.00 0.02 0.00 50 999.8
20260507153740 53 285 28.0 24.0 0.00 0.03 0.00 52 999.8
20260507153240 53 250 35.0 32.0 0.00 0.03 0.00 52 999.8
20260507152739 53 250 33.0 25.0 0.00 0.04 0.00 52 999.8
20260507152240 53 236 22.0 14.0 0.00 0.04 0.00 53 999.8
20260507151741 53 228 18.0 14.0 0.00 0.05 0.00 54 999.8
20260507151240 52 58 22.0 20.0 0.00 0.05 0.00 54 999.8
20260507150741 52 206 25.0 25.0 0.00 0.06 0.00 54 999.8
20260507150238 52 226 30.0 29.0 0.00 0.06 0.00 54 999.9
20260507145739 51 238 30.0 22.0 0.00 0.06 0.00 53 999.9
20260507145240 53 210 31.0 25.0 0.00 0.06 0.00 53 999.9
20260507144741 52 270 25.0 22.0 0.00 0.07 0.00 54 999.9
20260507144241 52 197 37.0 26.0 0.00 0.07 0.00 54 999.9
20260507143739 52 207 24.0 31.0 0.00 0.08 0.00 54 999.9
20260507143239 51 195 15.0 12.0 0.00 0.08 0.00 55 999.9
20260507142712 51 238 24.0 20.0 0.00 0.08 0.00 55 1000.0
20260507142209 51 178 22.0 20.0 0.00 0.09 0.00 56 1000.0
20260507141638 51 242 18.0 13.0 0.00 0.10 0.00 56 1000.0
20260507141138 50 292 35.0 22.0 0.00 0.10 0.00 57 1000.0
20260507140638 51 315 18.0 12.0 0.00 0.11 0.00 57 1000.0
20260507140139 50 244 23.0 18.0 0.00 0.11 0.00 57 1000.0
20260507135640 50 223 26.0 17.0 0.00 0.12 0.00 56 1000.0
20260507134608 50 270 29.0 20.0 0.00 0.12 0.00 57 1000.0
20260507134108 50 257 25.0 25.0 0.00 0.12 0.00 56 1000.0
20260507133609 49 219 13.0 10.0 0.00 0.12 0.00 58 1000.1
20260507133112 49 250 18.0 13.0 0.00 0.13 0.00 57 1000.1
20260507132609 49 215 20.0 20.0 0.00 0.13 0.00 58 1000.1
20260507132108 49 73 21.0 18.0 0.00 0.13 0.00 58 1000.1
20260507131609 48 214 15.0 23.0 0.00 0.14 0.00 58 1000.1
20260507131108 49 252 26.0 24.0 0.00 0.14 0.00 58 1000.1
20260507130610 49 210 24.0 21.0 0.00 0.15 0.00 58 1000.1
20260507125538 49 185 22.0 14.0 0.00 0.16 0.00 59 1000.2
20260507124538 48 180 24.0 20.0 0.00 0.17 0.00 60 1000.2
20260507124040 47 202 17.0 10.0 0.00 0.18 0.00 61 1000.3
20260507123541 47 202 17.0 10.0 0.00 0.18 0.00 61 1000.3
20260507123038 46 215 26.0 22.0 0.00 0.18 0.00 62 1000.3
20260507122537 45 236 25.0 21.0 0.00 0.18 0.00 63 1000.2
20260507122039 45 231 14.0 24.0 0.00 0.19 0.00 64 1000.2
20260507121537 45 260 22.0 18.0 0.00 0.19 0.00 64 1000.1
20260507121041 45 193 18.0 16.0 0.00 0.20 0.00 63 1000.1
20260507120538 45 258 18.0 20.0 0.00 0.21 0.00 63 1000.1
20260507120041 45 283 18.0 20.0 0.00 0.21 0.00 63 1000.1
20260507115511 45 124 24.0 18.0 0.00 0.22 0.00 64 1000.1
20260507115007 45 236 33.0 25.0 0.00 0.22 0.00 65 1000.0
20260507114507 46 197 24.0 16.0 0.00 0.22 0.00 69 1000.0
20260507114008 46 217 12.0 8.0 0.00 0.22 0.00 77 999.9
20260507113508 46 269 10.0 8.0 0.00 0.23 0.00 79 999.9
20260507113010 46 181 20.0 15.0 0.00 0.24 0.00 79 999.9
20260507112508 46 248 13.0 15.0 0.00 0.24 0.00 80 999.8
20260507112009 46 216 14.0 14.0 0.00 0.24 0.00 80 999.8
20260507111510 47 210 17.0 14.0 0.00 0.24 0.00 80 999.8
20260507111008 46 213 21.0 17.0 0.00 0.25 0.00 81 999.8
20260507110509 46 202 28.0 17.0 0.00 0.25 0.00 82 999.8
20260507105507 46 234 12.0 14.0 0.00 0.26 0.00 83 999.4
20260507105007 46 248 10.0 10.0 0.00 0.26 0.00 84 999.5
20260507104510 46 217 12.0 10.0 0.00 0.26 0.00 84 999.5
20260507104011 46 264 8.0 5.0 0.00 0.26 0.00 84 999.4
20260507103508 46 84 10.0 9.0 0.00 0.27 0.00 84 999.4
20260507103006 46 230 9.0 9.0 0.00 0.27 0.00 83 999.4
20260507102507 46 218 15.0 9.0 0.00 0.27 0.00 83 999.4
20260507102007 46 247 15.0 10.0 0.00 0.27 0.00 83 999.4
20260507101509 46 254 14.0 12.0 0.00 0.27 0.00 83 999.4
20260507101007 46 250 14.0 10.0 0.00 0.27 0.00 83 999.4
20260507100438 46 306 10.0 8.0 0.00 0.27 0.00 86 999.6
20260507095936 46 193 5.0 3.0 0.00 0.27 0.00 87 999.6
20260507095438 46 258 16.0 10.0 0.00 0.27 0.00 87 999.6
20260507094939 46 207 12.0 8.0 0.00 0.27 0.00 87 999.6
20260507094441 46 243 16.0 14.0 0.00 0.27 0.00 87 999.6
20260507093936 46 237 7.0 8.0 0.00 0.27 0.00 88 999.5
20260507093407 46 205 15.0 12.0 0.00 0.27 0.00 88 999.5
20260507092907 46 239 12.0 8.0 0.00 0.27 0.00 88 999.5
20260507092410 46 235 8.0 8.0 0.00 0.27 0.00 89 999.3
20260507091908 45 238 10.0 8.0 0.00 0.27 0.00 89 999.3
20260507091406 45 225 10.0 9.0 0.00 0.27 0.00 89 999.3
20260507090906 45 296 6.0 5.0 0.00 0.27 0.00 89 999.3
20260507090336 45 245 5.0 3.0 0.00 0.27 0.00 90 999.2
20260507085337 45 262 6.0 3.0 0.00 0.27 0.00 90 999.2
20260507084836 45 128 6.0 5.0 0.00 0.27 0.00 90 999.3
20260507084337 45 190 9.0 7.0 0.00 0.27 0.00 90 999.3
20260507083307 45 208 10.0 5.0 0.00 0.27 0.00 91 999.4
20260507082738 45 208 9.0 7.0 0.00 0.27 0.00 91 999.6
20260507082235 45 138 3.0 5.0 0.00 0.27 0.00 92 999.6
20260507081737 45 94 8.0 7.0 0.00 0.27 0.00 92 999.6
20260507081206 45 219 8.0 7.0 0.00 0.27 0.00 92 999.7
20260507080635 44 123 5.0 3.0 0.00 0.27 0.00 92 999.7
20260507080136 44 158 0.0 2.0 0.00 0.27 0.00 92 999.8
20260507075639 44 39 1.0 3.0 0.00 0.27 0.00 92 999.8
20260507075135 44 212 3.0 3.0 0.00 0.27 0.00 93 999.8
20260507074635 44 200 9.0 8.0 0.00 0.27 0.00 93 999.8
20260507074136 43 168 3.0 3.0 0.00 0.27 0.00 94 999.8
20260507073636 43 88 1.0 2.0 0.00 0.27 0.00 94 999.7
20260507073106 43 197 2.0 5.0 0.00 0.27 0.00 94 999.7
20260507072606 43 114 0.0 0.0 0.00 0.27 0.00 94 999.7
20260507072106 43 183 3.0 3.0 0.00 0.27 0.00 94 999.7
20260507071610 42 84 0.0 0.0 0.00 0.27 0.00 94 999.7
20260507071106 42 148 0.0 0.0 0.00 0.27 0.00 94 999.7
20260507070611 42 114 0.0 0.0 0.00 0.27 0.00 93 999.7
20260507070107 42 123 0.0 0.0 0.00 0.27 0.00 93 999.7
20260507065606 43 132 0.0 0.0 0.00 0.27 0.00 93 999.7
20260507065107 43 84 0.0 3.0 0.00 0.27 0.00 93 999.8
20260507064608 43 112 0.0 0.0 0.00 0.27 0.00 92 999.8
20260507064105 43 165 0.0 0.0 0.00 0.27 0.00 92 999.8
20260507063606 43 117 5.0 5.0 0.00 0.27 0.00 92 999.8
20260507063035 43 104 1.0 0.0 0.00 0.27 0.00 92 999.8
20260507062535 43 145 2.0 2.0 0.00 0.27 0.00 92 999.9
20260507062037 43 168 0.0 0.0 0.00 0.27 0.00 92 999.9
20260507061534 44 73 1.0 0.0 0.00 0.27 0.00 92 1000.0
20260507061036 44 176 6.0 5.0 0.00 0.27 0.00 92 1000.0
20260507060537 43 187 5.0 3.0 0.00 0.27 0.00 92 1000.0
20260507060036 43 122 2.0 2.0 0.00 0.27 0.00 92 1000.1
20260507055538 43 197 3.0 3.0 0.00 0.27 0.00 92 1000.1
20260507055038 43 188 3.0 3.0 0.00 0.27 0.00 92 1000.2
20260507054505 43 190 3.0 3.0 0.00 0.27 0.00 92 1000.2
20260507054004 43 181 3.0 5.0 0.00 0.27 0.00 92 1000.2
20260507053505 43 189 0.0 0.0 0.00 0.27 0.00 92 1000.2
20260507053006 43 171 0.0 0.0 0.00 0.27 0.00 92 1000.2
20260507052505 43 161 0.0 0.0 0.00 0.27 0.00 92 1000.3
20260507052005 43 182 1.0 0.0 0.00 0.27 0.00 92 1000.3
20260507051508 43 138 1.0 2.0 0.00 0.27 0.00 92 1000.5
20260507051005 43 215 5.0 5.0 0.00 0.27 0.00 92 1000.5
20260507050505 43 183 0.0 0.0 0.00 0.27 0.00 92 1000.5
20260507045936 43 151 2.0 3.0 0.00 0.27 0.00 92 1000.7
20260507045434 43 323 3.0 5.0 0.00 0.27 0.00 92 1000.7
20260507044937 43 202 0.0 0.0 0.00 0.27 0.00 92 1000.9
20260507044434 43 155 1.0 2.0 0.00 0.27 0.00 92 1000.9
20260507043935 43 97 1.0 2.0 0.00 0.27 0.00 92 1001.0
20260507043435 43 158 0.0 0.0 0.00 0.27 0.00 92 1001.0
20260507042935 43 149 0.0 0.0 0.00 0.27 0.00 92 1001.0
20260507042434 43 160 3.0 2.0 0.00 0.27 0.00 92 1001.1
20260507041934 43 153 1.0 2.0 0.00 0.27 0.00 92 1001.1
20260507041436 43 188 1.0 2.0 0.00 0.27 0.00 92 1001.1
20260507040934 43 180 2.0 2.0 0.00 0.27 0.00 92 1001.1
20260507040406 43 145 0.0 0.0 0.00 0.27 0.00 91 1001.1
20260507035904 43 133 0.0 0.0 0.00 0.27 0.27 91 1001.1
20260507035407 43 90 0.0 0.0 0.00 0.27 0.27 91 1001.1
20260507034904 44 156 0.0 0.0 0.00 0.27 0.27 91 1001.2
20260507033904 43 112 0.0 0.0 0.00 0.27 0.27 90 1001.2
20260507033404 44 130 0.0 0.0 0.00 0.27 0.27 90 1001.2
20260507032904 44 109 0.0 0.0 0.00 0.27 0.27 89 1001.2
20260507032405 44 124 0.0 0.0 0.00 0.27 0.27 89 1001.3
20260507031404 44 106 0.0 0.0 0.00 0.27 0.27 87 1001.4
20260507030903 44 90 0.0 0.0 0.00 0.27 0.27 88 1001.4
20260507030403 45 182 0.0 0.0 0.00 0.27 0.27 88 1001.3
20260507025906 45 199 1.0 2.0 0.00 0.27 0.27 87 1001.3
20260507025335 45 148 0.0 0.0 0.00 0.27 0.27 86 1001.3
20260507024835 45 162 0.0 0.0 0.00 0.27 0.27 86 1001.3
20260507024335 45 140 2.0 2.0 0.00 0.27 0.27 86 1001.3
20260507023803 45 220 6.0 5.0 0.00 0.27 0.27 85 1001.4
20260507023303 45 207 3.0 3.0 0.00 0.27 0.27 85 1001.4
20260507022734 46 214 5.0 2.0 0.00 0.27 0.27 85 1001.6
20260507022237 46 164 5.0 5.0 0.00 0.27 0.27 85 1001.6
20260507021733 46 198 8.0 5.0 0.00 0.27 0.27 84 1001.6
20260507021234 46 180 1.0 2.0 0.00 0.27 0.27 84 1001.7
20260507020734 46 181 3.0 6.0 0.00 0.27 0.27 84 1001.7
20260507020237 46 227 5.0 6.0 0.00 0.27 0.27 83 1001.7
20260507015703 46 229 3.0 6.0 0.00 0.27 0.27 83 1001.7
20260507014705 46 223 1.0 0.0 0.00 0.27 0.27 83 1001.8
20260507014204 46 309 3.0 5.0 0.00 0.27 0.27 83 1001.8
20260507013705 46 117 2.0 2.0 0.00 0.27 0.27 83 1001.7
20260507013135 46 155 5.0 3.0 0.00 0.27 0.27 82 1001.7
20260507012635 46 179 6.0 5.0 0.00 0.27 0.27 82 1001.8
20260507010637 46 213 3.0 2.0 0.00 0.27 0.27 81 1001.6
20260507010134 46 217 3.0 6.0 0.00 0.27 0.27 80 1001.6
20260507005636 46 185 5.0 2.0 0.00 0.27 0.27 80 1001.6
20260507005133 46 183 5.0 5.0 0.00 0.27 0.27 79 1001.5
20260507004632 46 157 3.0 2.0 0.00 0.27 0.27 79 1001.5
20260507004135 46 204 1.0 5.0 0.00 0.27 0.27 79 1001.5
20260507003632 46 215 3.0 5.0 0.00 0.27 0.27 80 1001.3
20260507002602 46 252 1.0 2.0 0.00 0.27 0.27 80 1001.2
20260507002110 46 178 5.0 3.0 0.00 0.27 0.27 80 1001.2
20260507001602 46 159 3.0 2.0 0.00 0.27 0.27 80 1001.2
20260507000608 46 186 2.0 2.0 0.00 0.27 0.27 79 1001.2
20260506235605 47 186 0.0 0.0 0.00 0.27 0.27 78 1001.1
20260506235106 47 165 2.0 3.0 0.00 0.27 0.27 78 1001.2